This is the latest recevied weather packets stored in our database for station/object WA6MHA-11. If no packets are shown the sender has not sent any weather packets the latest 10 day(s).
| Time | Temp. | Humidity | Pressure | Rain* | Wind** | Luminosity | Snow |
|---|---|---|---|---|---|---|---|
| 1777676631 | 28.33° C | 27% | 1012.6 hPa | 0 mm | - | - | - |
| 1777676391 | 28.33° C | 27% | 1012.7 hPa | 0 mm | - | - | - |
| 1777676148 | 30° C | 27% | 1012.8 hPa | 0 mm | - | - | - |
| 1777675669 | 30.56° C | 27% | 1012.7 hPa | 0 mm | - | - | - |
| 1777675184 | 30.56° C | 27% | 1012.8 hPa | 0 mm | - | - | - |
| 1777674943 | 30.56° C | 27% | 1012.9 hPa | 0 mm | - | - | - |
| 1777674460 | 30° C | 27% | 1013 hPa | 0 mm | - | - | - |
| 1777673977 | 30.56° C | 27% | 1013.2 hPa | 0 mm | - | - | - |
| 1777673497 | 30.56° C | 27% | 1013.4 hPa | 0 mm | - | - | - |
| 1777672292 | 29.44° C | 27% | 1013.7 hPa | 0 mm | - | - | - |
| 1777672047 | 28.89° C | 27% | 1013.8 hPa | 0 mm | - | - | - |
| 1777671805 | 29.44° C | 28% | 1013.7 hPa | 0 mm | - | - | - |
| 1777671564 | 30° C | 28% | 1013.7 hPa | 0 mm | - | - | - |
| 1777671324 | 30° C | 28% | 1013.8 hPa | 0 mm | - | - | - |
| 1777671081 | 30.56° C | 27% | 1013.9 hPa | 0 mm | - | - | - |
| 1777670840 | 30° C | 27% | 1013.8 hPa | 0 mm | - | - | - |
| 1777670599 | 29.44° C | 28% | 1013.9 hPa | 0 mm | - | - | - |
| 1777670357 | 29.44° C | 28% | 1014 hPa | 0 mm | - | - | - |
| 1777670116 | 28.89° C | 28% | 1014 hPa | 0 mm | - | - | - |
| 1777669875 | 29.44° C | 28% | 1014 hPa | 0 mm | - | - | - |
| 1777669392 | 28.89° C | 28% | 1014 hPa | 0 mm | - | - | - |
| 1777669151 | 30° C | 28% | 1014.1 hPa | 0 mm | - | - | - |
| 1777668910 | 30° C | 28% | 1014.1 hPa | 0 mm | - | - | - |
| 1777668428 | 29.44° C | 28% | 1014.1 hPa | 0 mm | - | - | - |
| 1777668185 | 29.44° C | 28% | 1014.2 hPa | 0 mm | - | - | - |
* Rain since midnight (hover to see other rain measurements)
** Current wind speed in m/s (hover to see current wind gust speed)